Find ICEYE-X56

NORAD ID: 64574 Int'l Des: 2025-135 Owner: ICEYE Country: FI Constellation: iceye operational
LEOCIRCULARRETROGRADESSO

リアルタイム位置

3D地球を読み込み中...

ICEYE-X56について

説明を読み込み中...

次回通過

Passes for default location (London). Set your location on the main map for personalized predictions.

高度履歴

Loading altitude history...

軌道要素

1 64574U 25135AY 26106.94088546 .00002418 00000-0 22499-3 0 9995
2 64574 97.7663 222.4237 0002735 145.4493 214.6906 14.95249749 44779
Epoch: Apr 16, 2026 • Age: 8 hours

現在のステータス

高度 585.7 km
速度 7.57 km/s
衛星直下点 3.55°N, 82.55°W
打ち上げ日 Jun 23, 2025
運用期間 0.8 years
タイプ earth observation

技術仕様

分類 Payload
質量 80.00 kg
乾燥質量 80.00 kg
総質量 80.00 kg
長さ 0.80 m
直径 0.60 m
スパン 1.50 m
形状 Box + pan
製造者 ICEYE
バスタイプ ICEYE
フェーズステータス In Orbit
所有者/国 ICEYE/FI

Most Searched